| time (UTC) | temp F | wind direction | speed MPH | gust MPH | rain 1hr in | rain 24hr in | rain mn in | humidity % | barometer mb |
| 20260904210525 | 80 | 244 | 3.0 | 4.0 | 0.00 | 0.00 | 0.00 | 72 | 1017.7 |
| 20260904205522 | 80 | 228 | 3.0 | 4.0 | 0.00 | 0.00 | 0.00 | 73 | 1017.8 |
| 20260904204520 | 80 | 233 | 4.0 | 4.0 | 0.00 | 0.00 | 0.00 | 74 | 1017.8 |
| 20260904203517 | 80 | 221 | 3.0 | 4.0 | 0.00 | 0.00 | 0.00 | 75 | 1017.7 |
| 20260904202515 | 80 | 237 | 3.0 | 4.0 | 0.00 | 0.00 | 0.00 | 75 | 1017.8 |
| 20260904201612 | 80 | 253 | 1.0 | 2.0 | 0.00 | 0.00 | 0.00 | 74 | 1017.8 |
| 20260904200610 | 80 | 248 | 2.0 | 2.0 | 0.00 | 0.00 | 0.00 | 74 | 1017.7 |
| 20260904195607 | 81 | 239 | 1.0 | 4.0 | 0.00 | 0.00 | 0.00 | 74 | 1017.8 |
| 20260904194605 | 81 | 0.0 | 2.0 | 0.00 | 0.00 | 0.00 | 75 | 1017.6 | |
| 20260904193602 | 81 | 315 | 0.0 | 2.0 | 0.00 | 0.00 | 0.00 | 75 | 1017.6 |
| 20260904192559 | 81 | 322 | 1.0 | 2.0 | 0.00 | 0.00 | 0.00 | 76 | 1017.6 |
| 20260904191556 | 80 | 338 | 0.0 | 2.0 | 0.00 | 0.00 | 0.00 | 78 | 1017.5 |
| 20260904190554 | 80 | 310 | 1.0 | 2.0 | 0.00 | 0.00 | 0.00 | 79 | 1017.5 |
| 20260904185551 | 81 | 306 | 1.0 | 2.0 | 0.00 | 0.00 | 0.00 | 79 | 1017.3 |
| 20260904184549 | 81 | 313 | 3.0 | 4.0 | 0.00 | 0.00 | 0.00 | 78 | 1017.0 |
| 20260904183546 | 81 | 300 | 1.0 | 2.0 | 0.00 | 0.00 | 0.00 | 78 | 1017.0 |
| 20260904182544 | 81 | 62 | 1.0 | 2.0 | 0.00 | 0.00 | 0.00 | 77 | 1016.9 |
| 20260904181542 | 82 | 20 | 2.0 | 4.0 | 0.00 | 0.00 | 0.00 | 76 | 1016.8 |
| 20260904180538 | 82 | 348 | 2.0 | 6.0 | 0.00 | 0.00 | 0.00 | 74 | 1016.7 |
| 20260904175536 | 83 | 10 | 3.0 | 6.0 | 0.00 | 0.00 | 0.00 | 73 | 1016.7 |
| 20260904174533 | 84 | 118 | 2.0 | 4.0 | 0.00 | 0.00 | 0.00 | 70 | 1016.4 |
| 20260904173531 | 84 | 29 | 2.0 | 6.0 | 0.00 | 0.00 | 0.00 | 68 | 1016.3 |
| 20260904172528 | 84 | 43 | 3.0 | 7.0 | 0.00 | 0.00 | 0.00 | 68 | 1016.3 |
| 20260904171525 | 84 | 30 | 5.0 | 11.0 | 0.00 | 0.00 | 0.00 | 69 | 1016.3 |
| 20260904170523 | 85 | 17 | 6.0 | 11.0 | 0.00 | 0.00 | 0.00 | 68 | 1016.1 |
| 20260904165520 | 85 | 13 | 5.0 | 11.0 | 0.00 | 0.00 | 0.00 | 68 | 1016.0 |
| 20260904164517 | 86 | 358 | 6.0 | 11.0 | 0.00 | 0.00 | 0.00 | 68 | 1016.0 |
| 20260904163515 | 86 | 6 | 7.0 | 14.0 | 0.00 | 0.00 | 0.00 | 69 | 1015.9 |
| 20260904162614 | 86 | 13 | 6.0 | 11.0 | 0.00 | 0.00 | 0.00 | 67 | 1015.9 |
| 20260904161610 | 88 | 50 | 5.0 | 9.0 | 0.00 | 0.00 | 0.00 | 64 | 1015.9 |
| 20260904160607 | 88 | 10 | 5.0 | 11.0 | 0.00 | 0.00 | 0.00 | 64 | 1016.0 |
| 20260904155605 | 88 | 53 | 5.0 | 11.0 | 0.00 | 0.00 | 0.00 | 63 | 1015.8 |
| 20260904154602 | 88 | 17 | 5.0 | 9.0 | 0.00 | 0.00 | 0.00 | 65 | 1015.9 |
| 20260904153559 | 88 | 17 | 6.0 | 11.0 | 0.00 | 0.00 | 0.00 | 65 | 1015.8 |
| 20260904152557 | 88 | 2 | 6.0 | 11.0 | 0.00 | 0.00 | 0.00 | 65 | 1015.9 |
| 20260904151554 | 88 | 324 | 8.0 | 14.0 | 0.00 | 0.00 | 0.00 | 65 | 1016.0 |
| 20260904150552 | 89 | 32 | 7.0 | 11.0 | 0.00 | 0.00 | 0.00 | 62 | 1015.8 |
| 20260904145549 | 89 | 349 | 9.0 | 15.0 | 0.00 | 0.00 | 0.00 | 60 | 1015.8 |
| 20260904144547 | 91 | 28 | 9.0 | 16.0 | 0.00 | 0.00 | 0.00 | 56 | 1015.5 |
| 20260904143544 | 93 | 18 | 9.0 | 15.0 | 0.00 | 0.00 | 0.00 | 50 | 1015.7 |
| 20260904142541 | 94 | 8 | 6.0 | 13.0 | 0.00 | 0.00 | 0.00 | 48 | 1015.4 |
| 20260904141539 | 96 | 81 | 4.0 | 8.0 | 0.00 | 0.00 | 0.00 | 44 | 1015.7 |
| 20260904140536 | 96 | 143 | 3.0 | 9.0 | 0.00 | 0.00 | 0.00 | 44 | 1015.6 |
| 20260904135533 | 96 | 130 | 3.0 | 9.0 | 0.00 | 0.00 | 0.00 | 44 | 1015.5 |
| 20260904134531 | 97 | 75 | 3.0 | 7.0 | 0.00 | 0.00 | 0.00 | 43 | 1015.7 |
| 20260904133528 | 96 | 142 | 4.0 | 11.0 | 0.00 | 0.00 | 0.00 | 46 | 1015.6 |
| 20260904132526 | 96 | 138 | 4.0 | 11.0 | 0.00 | 0.00 | 0.00 | 46 | 1015.6 |
| 20260904131523 | 97 | 128 | 3.0 | 9.0 | 0.00 | 0.00 | 0.00 | 46 | 1015.7 |
| 20260904130521 | 97 | 137 | 3.0 | 6.0 | 0.00 | 0.00 | 0.00 | 44 | 1015.7 |
| 20260904125518 | 97 | 167 | 3.0 | 7.0 | 0.00 | 0.00 | 0.00 | 42 | 1015.8 |
| 20260904124515 | 97 | 114 | 3.0 | 8.0 | 0.00 | 0.00 | 0.00 | 42 | 1015.9 |
| 20260904123613 | 97 | 136 | 2.0 | 7.0 | 0.00 | 0.00 | 0.00 | 41 | 1015.8 |
| 20260904122610 | 97 | 166 | 2.0 | 6.0 | 0.00 | 0.00 | 0.00 | 40 | 1016.0 |
| 20260904121608 | 97 | 117 | 4.0 | 8.0 | 0.00 | 0.00 | 0.00 | 39 | 1015.9 |
| 20260904120605 | 96 | 59 | 3.0 | 8.0 | 0.00 | 0.00 | 0.00 | 41 | 1016.1 |
| 20260904115603 | 95 | 121 | 4.0 | 11.0 | 0.00 | 0.00 | 0.00 | 41 | 1016.2 |
| 20260904114600 | 95 | 111 | 4.0 | 9.0 | 0.00 | 0.00 | 0.00 | 40 | 1016.4 |
| 20260904113557 | 95 | 135 | 4.0 | 7.0 | 0.00 | 0.00 | 0.00 | 40 | 1016.5 |
| 20260904112555 | 94 | 102 | 3.0 | 7.0 | 0.00 | 0.00 | 0.00 | 43 | 1016.6 |
| 20260904111552 | 94 | 110 | 1.0 | 7.0 | 0.00 | 0.00 | 0.00 | 42 | 1016.6 |
| 20260904110550 | 94 | 99 | 2.0 | 6.0 | 0.00 | 0.00 | 0.00 | 44 | 1016.7 |
| 20260904105547 | 93 | 87 | 2.0 | 6.0 | 0.00 | 0.00 | 0.00 | 47 | 1016.8 |
| 20260904104544 | 92 | 345 | 1.0 | 4.0 | 0.00 | 0.00 | 0.00 | 49 | 1016.9 |
| 20260904103542 | 92 | 113 | 1.0 | 4.0 | 0.00 | 0.00 | 0.00 | 49 | 1017.0 |
| 20260904102539 | 92 | 98 | 2.0 | 4.0 | 0.00 | 0.00 | 0.00 | 50 | 1017.1 |
| 20260904101537 | 90 | 146 | 2.0 | 4.0 | 0.00 | 0.00 | 0.00 | 53 | 1017.2 |
| 20260904100534 | 90 | 135 | 1.0 | 4.0 | 0.00 | 0.00 | 0.00 | 53 | 1017.3 |
| 20260904095531 | 89 | 117 | 1.0 | 4.0 | 0.00 | 0.00 | 0.00 | 54 | 1017.2 |
| 20260904094529 | 88 | 126 | 2.0 | 4.0 | 0.00 | 0.00 | 0.00 | 55 | 1017.3 |
| 20260904093526 | 88 | 9 | 1.0 | 4.0 | 0.00 | 0.00 | 0.00 | 55 | 1017.3 |
| 20260904092524 | 88 | 131 | 1.0 | 4.0 | 0.00 | 0.00 | 0.00 | 55 | 1017.3 |
| 20260904091521 | 87 | 198 | 0.0 | 2.0 | 0.00 | 0.00 | 0.00 | 56 | 1017.3 |
| 20260904090518 | 87 | 0 | 1.0 | 4.0 | 0.00 | 0.00 | 0.00 | 56 | 1017.2 |
| 20260904085516 | 87 | 90 | 0.0 | 2.0 | 0.00 | 0.00 | 0.00 | 56 | 1017.2 |
| 20260904084614 | 86 | 293 | 0.0 | 2.0 | 0.00 | 0.00 | 0.00 | 59 | 1017.2 |
| 20260904083611 | 84 | 112 | 1.0 | 2.0 | 0.00 | 0.00 | 0.00 | 60 | 1017.1 |
| 20260904082608 | 85 | 107 | 0.0 | 2.0 | 0.00 | 0.00 | 0.00 | 60 | 1017.0 |
| 20260904081606 | 84 | 0.0 | 2.0 | 0.00 | 0.00 | 0.00 | 60 | 1017.1 | |
| 20260904080603 | 84 | 113 | 0.0 | 2.0 | 0.00 | 0.00 | 0.00 | 60 | 1017.0 |
| 20260904075601 | 83 | 0.0 | 0.0 | 0.00 | 0.00 | 0.00 | 62 | 1016.9 | |
| 20260904074558 | 82 | 0.0 | 2.0 | 0.00 | 0.00 | 0.00 | 64 | 1016.9 | |
| 20260904073555 | 81 | 113 | 0.0 | 2.0 | 0.00 | 0.00 | 0.00 | 66 | 1016.8 |
| 20260904072553 | 79 | 107 | 0.0 | 4.0 | 0.00 | 0.00 | 0.00 | 68 | 1016.8 |
| 20260904071550 | 78 | 109 | 1.0 | 2.0 | 0.00 | 0.00 | 0.00 | 69 | 1016.9 |
| 20260904070548 | 78 | 144 | 1.0 | 2.0 | 0.00 | 0.00 | 0.00 | 70 | 1016.8 |
| 20260904065545 | 78 | 0.0 | 2.0 | 0.00 | 0.00 | 0.00 | 69 | 1016.9 | |
| 20260904064542 | 79 | 0.0 | 0.0 | 0.00 | 0.00 | 0.00 | 67 | 1016.8 | |
| 20260904063540 | 78 | 50 | 1.0 | 2.0 | 0.00 | 0.00 | 0.00 | 69 | 1016.7 |
| 20260904062537 | 77 | 113 | 0.0 | 2.0 | 0.00 | 0.00 | 0.00 | 70 | 1016.7 |
| 20260904061534 | 76 | 0.0 | 0.0 | 0.00 | 0.00 | 0.00 | 73 | 1016.6 | |
| 20260904060532 | 76 | 0.0 | 0.0 | 0.00 | 0.00 | 0.00 | 73 | 1016.5 | |
| 20260904055529 | 74 | 286 | 1.0 | 2.0 | 0.00 | 0.00 | 0.00 | 75 | 1016.4 |
| 20260904054527 | 73 | 0.0 | 0.0 | 0.00 | 0.00 | 0.00 | 78 | 1016.5 | |
| 20260904053524 | 73 | 0.0 | 0.0 | 0.00 | 0.00 | 0.00 | 79 | 1016.5 | |
| 20260904052522 | 73 | 0.0 | 0.0 | 0.00 | 0.00 | 0.00 | 78 | 1016.4 | |
| 20260904051519 | 73 | 0.0 | 0.0 | 0.00 | 0.00 | 0.00 | 78 | 1016.5 | |
| 20260904050517 | 73 | 0.0 | 2.0 | 0.00 | 0.00 | 0.00 | 79 | 1016.4 | |
| 20260904045614 | 73 | 293 | 1.0 | 2.0 | 0.00 | 0.00 | 0.00 | 79 | 1016.5 |
| 20260904044611 | 73 | 270 | 0.0 | 2.0 | 0.00 | 0.00 | 0.00 | 80 | 1016.7 |
| 20260904043609 | 73 | 225 | 0.0 | 2.0 | 0.00 | 0.00 | 0.00 | 80 | 1016.6 |
| 20260904042606 | 72 | 0.0 | 2.0 | 0.00 | 0.00 | 0.00 | 80 | 1016.7 | |
| 20260904041604 | 72 | 304 | 0.0 | 2.0 | 0.00 | 0.00 | 0.00 | 81 | 1016.7 |
| 20260904040601 | 72 | 289 | 1.0 | 2.0 | 0.00 | 0.00 | 0.00 | 81 | 1016.7 |
| 20260904035558 | 72 | 232 | 0.0 | 2.0 | 0.00 | 0.00 | 0.00 | 81 | 1017.0 |
| 20260904034556 | 72 | 228 | 1.0 | 2.0 | 0.00 | 0.00 | 0.00 | 82 | 1017.0 |
| 20260904033553 | 72 | 225 | 1.0 | 2.0 | 0.00 | 0.00 | 0.00 | 82 | 1016.9 |
| 20260904032551 | 72 | 203 | 0.0 | 2.0 | 0.00 | 0.00 | 0.00 | 83 | 1017.0 |
| 20260904031548 | 72 | 68 | 0.0 | 2.0 | 0.00 | 0.00 | 0.00 | 83 | 1017.1 |
| 20260904030545 | 72 | 45 | 0.0 | 2.0 | 0.00 | 0.00 | 0.00 | 83 | 1017.2 |
| 20260904025543 | 72 | 236 | 0.0 | 2.0 | 0.00 | 0.00 | 0.00 | 83 | 1017.2 |
| 20260904024540 | 72 | 237 | 2.0 | 4.0 | 0.00 | 0.00 | 0.00 | 84 | 1017.3 |
| 20260904023538 | 72 | 203 | 1.0 | 2.0 | 0.00 | 0.00 | 0.00 | 85 | 1017.5 |
| 20260904022535 | 72 | 180 | 0.0 | 2.0 | 0.00 | 0.00 | 0.00 | 84 | 1017.5 |
| 20260904021533 | 72 | 233 | 1.0 | 2.0 | 0.00 | 0.00 | 0.00 | 85 | 1017.5 |
| 20260904020530 | 71 | 203 | 1.0 | 4.0 | 0.00 | 0.00 | 0.00 | 86 | 1017.6 |
| 20260904015527 | 72 | 204 | 2.0 | 4.0 | 0.00 | 0.00 | 0.00 | 86 | 1017.6 |
| 20260904014525 | 72 | 225 | 0.0 | 2.0 | 0.00 | 0.00 | 0.00 | 86 | 1017.8 |
| 20260904013522 | 72 | 199 | 2.0 | 4.0 | 0.00 | 0.00 | 0.00 | 86 | 1018.0 |
| 20260904012520 | 71 | 158 | 2.0 | 2.0 | 0.00 | 0.00 | 0.00 | 86 | 1017.9 |
| 20260904011517 | 72 | 209 | 1.0 | 2.0 | 0.00 | 0.00 | 0.00 | 86 | 1017.9 |
| 20260904010615 | 72 | 139 | 1.0 | 2.0 | 0.00 | 0.00 | 0.00 | 87 | 1018.1 |
| 20260904005612 | 72 | 158 | 0.0 | 2.0 | 0.00 | 0.00 | 0.00 | 87 | 1018.2 |
| 20260904004610 | 72 | 0.0 | 2.0 | 0.00 | 0.00 | 0.00 | 88 | 1018.3 | |
| 20260904003607 | 73 | 152 | 1.0 | 2.0 | 0.00 | 0.00 | 0.00 | 89 | 1018.4 |
| 20260904002604 | 73 | 172 | 1.0 | 2.0 | 0.00 | 0.00 | 0.00 | 89 | 1018.5 |
| 20260904001602 | 73 | 234 | 1.0 | 4.0 | 0.00 | 0.00 | 0.00 | 90 | 1018.6 |
| 20260904000559 | 73 | 225 | 1.0 | 2.0 | 0.00 | 0.00 | 0.00 | 90 | 1018.6 |
| 20260903235557 | 73 | 177 | 1.0 | 4.0 | 0.00 | 0.00 | 0.00 | 90 | 1018.8 |
| 20260903234554 | 73 | 221 | 2.0 | 4.0 | 0.00 | 0.00 | 0.00 | 90 | 1018.8 |
| 20260903233551 | 73 | 188 | 1.0 | 4.0 | 0.00 | 0.00 | 0.00 | 90 | 1018.8 |
| 20260903232549 | 73 | 164 | 2.0 | 4.0 | 0.00 | 0.00 | 0.00 | 91 | 1018.8 |
| 20260903231546 | 74 | 164 | 2.0 | 4.0 | 0.00 | 0.00 | 0.00 | 90 | 1018.9 |
| 20260903230543 | 74 | 191 | 3.0 | 6.0 | 0.00 | 0.00 | 0.00 | 90 | 1018.9 |
| 20260903225541 | 74 | 193 | 3.0 | 6.0 | 0.00 | 0.00 | 0.00 | 89 | 1019.0 |
| 20260903224539 | 74 | 213 | 2.0 | 4.0 | 0.00 | 0.00 | 0.00 | 89 | 1018.9 |
| 20260903223536 | 74 | 203 | 3.0 | 6.0 | 0.00 | 0.00 | 0.00 | 89 | 1019.0 |
| 20260903222533 | 74 | 199 | 2.0 | 6.0 | 0.00 | 0.00 | 0.00 | 89 | 1018.9 |
| 20260903221531 | 74 | 207 | 3.0 | 7.0 | 0.00 | 0.00 | 0.00 | 88 | 1018.9 |
| 20260903220528 | 74 | 206 | 3.0 | 6.0 | 0.00 | 0.00 | 0.00 | 88 | 1019.0 |
| 20260903215525 | 74 | 201 | 4.0 | 6.0 | 0.00 | 0.00 | 0.00 | 88 | 1019.2 |
| 20260903214523 | 75 | 159 | 3.0 | 6.0 | 0.00 | 0.00 | 0.00 | 87 | 1019.0 |
| 20260903213520 | 75 | 192 | 6.0 | 8.0 | 0.00 | 0.00 | 0.00 | 85 | 1019.1 |
| 20260903212517 | 75 | 153 | 3.0 | 6.0 | 0.00 | 0.00 | 0.00 | 83 | 1019.1 |
| 20260903211515 | 75 | 162 | 3.0 | 6.0 | 0.00 | 0.00 | 0.00 | 82 | 1019.0 |